Theta_e
313 313 313 312 312 311 310 309 309 309 307 306 305 305 305 305 306 305 305 305 306 306 307 307 307 307 307 308 308 309 310 311 314 316 317 316 317 321 318 314 316 314 312 314 313 314 313 313 314 311 316 317 314 315 313 317 327 338 340 331 323 323 324 323 321 318 321 323 318 316 315 317 317 314 311 310 315 318 316 317 316 313 312 311 313 313 314 319
313 313 312 312 312 311 310 308 308 309 308 307 306 306 305 305 305 306 306 306 306 306 307 307 307 308 308 309 309 310 311 314 318 318 316 316 316 319 319 317 316 314 313 314 314 314 314 316 312 313 320 319 312 315 317 313 323 340 335 327 328 328 322 320 322 318 316 318 318 317 314 315 316 315 312 312 317 317 316 318 317 319 318 314 313 314 318 322
312 312 312 311 311 310 311 309 308 308 308 307 307 307 306 305 305 306 307 307 307 307 307 307 308 308 309 310 310 311 312 315 321 317 314 315 315 316 317 317 315 313 315 315 315 314 315 316 310 314 323 318 314 317 321 316 317 327 329 328 330 329 321 316 320 320 316 316 319 317 313 315 314 313 312 314 319 317 319 320 318 322 324 320 316 313 319 324
312 312 311 311 310 309 311 311 310 310 310 309 307 307 307 306 306 306 307 307 308 308 307 308 308 309 310 311 311 312 314 317 318 315 313 314 314 314 314 314 313 314 316 314 315 315 314 313 310 317 321 318 322 321 318 316 314 318 324 326 322 322 320 317 319 320 318 315 318 318 314 315 314 312 313 315 318 318 322 321 318 322 326 326 319 312 317 322
312 312 311 310 310 308 309 311 311 311 311 310 308 307 307 307 306 306 307 307 308 308 308 309 309 311 311 312 313 313 317 318 315 312 313 314 313 313 313 313 314 315 315 315 316 314 313 312 314 324 322 318 326 323 315 313 314 316 317 318 318 317 316 318 319 317 316 314 315 318 315 314 313 313 316 317 317 320 320 317 317 319 321 325 319 312 313 316
311 311 311 310 309 309 308 310 310 311 311 310 309 308 307 307 307 307 307 308 309 309 309 310 311 311 312 313 314 314 316 316 313 311 313 313 312 313 313 314 315 315 315 316 315 314 316 315 318 326 324 319 320 318 316 312 313 318 316 314 317 317 315 317 319 317 316 316 317 317 315 314 314 314 315 315 316 317 314 313 315 312 312 316 313 311 314 315
311 310 310 310 310 310 310 310 309 310 310 309 308 307 308 308 308 308 308 309 309 310 311 311 311 312 313 314 314 316 318 317 313 313 313 313 313 313 313 314 315 316 316 315 315 317 321 321 320 323 322 319 316 315 316 314 317 323 320 316 316 315 316 316 317 317 316 317 317 315 313 314 317 316 312 314 316 317 312 308 308 306 307 311 313 313 313 313
310 310 310 310 311 310 310 311 310 309 310 310 309 308 309 308 308 309 309 310 310 311 311 312 312 312 314 314 316 320 320 318 315 313 314 313 313 313 313 314 315 316 316 315 315 317 320 320 318 318 320 317 315 315 315 315 321 323 319 317 317 316 318 317 316 318 316 315 315 314 315 316 317 313 312 317 319 318 314 309 307 308 310 313 318 317 309 308
311 310 309 309 310 309 308 309 309 309 310 312 311 311 310 308 308 308 310 311 310 312 312 313 313 313 315 314 314 317 317 317 317 314 313 313 313 313 313 314 315 315 316 315 314 314 317 318 317 316 318 316 313 315 315 316 319 318 318 319 317 316 319 317 316 319 317 316 314 314 318 318 314 311 314 319 318 316 314 315 314 315 318 317 319 315 307 307
311 311 310 310 309 308 307 307 308 310 311 311 311 311 310 308 308 309 310 311 311 312 312 313 314 314 315 314 314 314 314 318 317 314 313 313 313 312 313 314 315 316 315 315 314 313 315 317 315 312 316 317 314 314 314 315 315 315 319 319 318 320 320 316 316 319 317 317 315 314 318 317 312 313 316 319 315 313 319 321 315 318 322 319 318 314 307 307
311 311 310 310 308 308 308 309 308 310 311 311 311 312 311 308 308 310 310 311 312 312 313 313 314 314 315 317 320 317 316 318 317 314 313 313 312 313 313 314 315 315 315 315 314 313 314 313 310 310 315 315 314 315 313 313 313 314 318 317 319 323 320 317 317 317 315 315 316 315 315 315 312 313 317 317 312 312 324 325 315 318 321 316 318 315 308 306
311 311 311 310 309 309 310 311 310 310 311 311 312 313 312 309 308 309 310 311 312 312 313 313 314 316 314 317 322 320 318 319 317 314 313 312 312 313 313 314 315 315 316 315 313 313 313 312 312 316 317 313 315 316 313 312 313 315 317 316 321 327 322 316 316 316 314 315 317 315 314 317 315 315 317 315 309 310 320 325 319 317 318 316 316 314 309 306
311 311 311 312 311 310 311 312 312 311 312 312 313 313 313 311 308 309 311 312 313 313 313 313 315 316 314 318 320 316 317 319 317 314 313 312 312 313 313 314 315 316 316 315 313 313 313 312 313 317 315 316 318 312 314 316 315 316 316 317 323 327 325 316 312 314 313 315 317 315 316 323 322 318 315 311 310 313 318 322 319 316 315 315 314 314 312 306
312 311 311 311 311 311 311 312 312 312 312 312 313 313 313 311 309 310 311 312 313 313 313 314 315 315 315 319 317 315 316 317 318 315 313 313 313 314 314 315 315 315 316 314 313 313 313 312 313 315 312 316 316 310 321 327 321 319 314 321 326 319 327 324 313 315 314 313 315 314 317 321 322 322 315 309 310 315 321 321 316 315 314 314 313 313 313 308
312 311 311 311 311 310 310 311 312 313 313 313 312 312 312 311 310 311 312 314 314 314 314 315 316 317 320 320 315 315 316 316 319 317 314 314 313 314 315 314 315 315 315 314 313 313 312 312 315 318 313 313 314 316 329 330 328 328 315 325 328 316 329 332 316 316 315 313 312 313 319 319 318 320 314 308 310 314 319 319 314 314 313 312 313 310 311 309
312 312 312 312 312 311 311 310 311 311 312 312 312 312 312 313 312 313 314 314 315 315 315 315 314 316 320 319 314 315 316 317 319 317 315 314 314 315 314 315 314 314 315 313 313 313 313 316 315 314 313 315 321 330 336 326 329 332 318 322 329 319 325 325 316 315 315 314 312 313 320 322 320 318 312 308 310 312 316 317 314 313 312 311 311 309 310 309
314 313 313 313 312 312 311 311 310 309 310 312 312 312 313 315 314 314 315 316 317 316 315 315 313 313 314 313 315 317 317 317 318 317 316 314 315 316 314 314 312 312 314 312 314 314 313 317 315 313 318 320 322 331 331 323 325 330 319 320 328 323 320 321 322 316 311 314 314 314 316 318 319 317 315 313 310 312 317 317 315 312 310 309 309 309 309 309
315 314 314 313 313 312 312 311 310 309 311 312 312 314 315 316 315 315 317 316 315 313 312 314 312 312 313 312 314 317 316 316 318 317 315 315 315 315 315 313 310 311 316 315 314 315 315 318 320 321 324 321 320 324 324 322 327 332 325 322 325 322 317 321 324 316 311 313 314 316 315 316 316 314 317 318 311 314 319 316 313 311 310 309 309 309 309 308
315 315 314 314 313 312 312 312 311 310 312 312 314 316 314 314 315 316 317 316 315 312 313 315 312 312 314 313 315 315 315 316 317 316 315 316 314 314 314 311 313 316 317 318 315 316 320 321 323 323 322 321 319 320 321 322 326 331 332 331 329 323 320 323 325 320 314 313 315 316 315 315 315 313 314 317 314 314 316 313 311 310 310 310 309 309 308 308
316 315 315 314 313 313 312 312 311 311 311 313 315 313 311 316 316 315 317 318 319 316 316 319 315 315 316 316 317 315 315 316 315 316 315 315 314 314 314 311 317 320 318 324 320 314 318 321 323 324 323 321 319 317 319 322 323 324 327 329 327 323 323 324 325 322 314 313 320 318 315 315 314 315 313 314 316 316 316 314 312 311 309 309 309 308 308 308
316 316 315 315 314 313 313 311 311 312 312 313 315 312 314 319 313 312 319 321 318 313 315 318 314 314 314 314 315 314 317 317 314 315 314 314 314 315 317 315 319 320 319 325 321 313 316 320 323 324 320 318 317 316 317 321 320 320 322 322 323 324 323 321 319 319 314 314 322 320 316 315 313 314 312 312 315 316 316 315 314 312 310 309 309 308 308 308
317 316 316 315 314 313 312 312 311 312 313 313 314 313 314 315 313 313 316 320 320 314 315 315 313 316 314 312 315 314 318 322 318 316 315 313 314 317 319 318 321 322 320 320 319 317 319 322 321 319 318 317 317 316 315 317 317 319 323 321 322 324 322 322 319 317 314 314 322 324 318 316 314 314 313 312 313 313 312 313 313 313 312 310 309 308 308 309
317 317 316 315 315 313 313 312 311 313 314 313 313 313 313 314 315 313 312 317 322 318 316 316 316 319 318 314 314 315 318 323 322 319 315 313 315 318 317 318 320 321 319 318 320 322 323 326 321 316 318 318 317 317 314 315 317 320 323 321 321 323 322 324 322 317 315 314 320 325 318 315 315 315 315 313 312 311 311 312 311 311 311 311 310 309 309 309
319 318 317 316 315 313 313 311 312 314 315 314 313 313 315 316 315 314 314 317 319 319 318 315 314 317 320 315 313 318 319 320 321 319 315 314 317 317 316 319 320 320 319 318 320 321 323 323 317 314 317 317 318 319 317 318 320 321 321 319 319 322 321 323 323 320 320 319 318 322 322 323 324 321 319 317 315 314 313 312 311 310 310 310 310 310 310 309
319 319 317 316 315 314 313 311 312 314 315 315 313 312 315 317 314 313 316 316 316 319 315 312 313 316 317 314 314 319 319 319 321 318 314 314 316 316 316 318 320 321 319 316 316 318 320 318 316 318 316 316 319 320 321 322 321 323 324 320 318 321 321 320 322 321 326 330 321 318 326 335 334 327 324 324 323 322 317 314 314 312 311 311 311 310 310 309
320 319 318 317 316 314 312 312 312 313 315 314 312 312 314 317 315 312 316 318 316 316 314 312 315 316 313 314 316 318 317 319 318 315 313 313 314 315 317 317 317 320 318 316 317 318 319 315 318 325 320 318 319 318 322 321 318 323 325 321 318 317 319 320 320 320 329 333 319 317 329 331 327 326 328 330 330 331 325 319 317 314 313 313 312 310 309 309
320 320 319 318 316 313 313 313 312 313 315 314 312 312 313 315 314 312 314 318 314 314 317 314 312 313 314 315 314 313 314 317 315 313 314 313 314 314 317 318 316 318 318 318 320 320 319 316 318 324 324 322 320 319 322 318 320 328 323 321 320 318 319 320 319 321 327 327 320 323 331 326 324 325 327 327 327 328 327 323 320 317 316 315 312 310 310 309
321 320 319 318 316 314 313 313 313 314 314 314 312 311 313 315 314 312 312 313 311 313 318 316 311 312 315 312 312 315 315 316 317 315 313 312 314 315 318 320 318 319 319 319 320 318 318 322 320 320 323 323 322 325 323 316 322 327 318 318 321 320 322 321 321 323 323 323 324 325 324 326 329 327 323 322 323 327 328 326 322 320 321 319 317 313 309 309
320 320 319 319 317 314 313 312 313 314 313 314 313 312 314 314 313 313 313 310 312 316 316 315 313 314 315 312 314 320 317 317 319 316 313 312 313 315 318 320 320 320 317 317 320 319 317 320 319 319 321 323 325 325 319 317 321 319 314 318 321 321 324 324 327 327 325 326 328 327 324 327 330 328 326 323 325 331 329 324 321 321 323 322 322 318 310 308
320 320 319 318 317 314 313 313 313 313 313 313 313 312 314 315 313 311 312 310 312 318 315 314 315 316 317 314 316 319 318 319 318 315 316 315 315 317 316 316 321 323 319 317 320 320 316 313 314 319 320 321 324 319 314 318 319 315 320 327 325 326 328 329 329 326 328 329 328 328 327 327 329 330 330 326 326 330 328 328 329 329 330 327 326 320 311 308
320 320 319 318 316 314 313 314 313 313 314 313 313 313 315 319 318 313 311 309 309 316 317 316 316 316 316 316 317 319 318 319 316 315 318 317 317 320 318 316 321 325 323 321 322 320 317 316 317 319 318 320 324 320 314 315 315 318 332 332 326 329 329 329 330 328 332 331 325 324 322 322 327 329 328 326 325 325 325 331 335 335 337 335 330 321 311 308
319 320 319 318 317 315 314 314 313 313 314 313 313 315 316 318 319 315 312 310 311 318 321 320 318 317 317 317 318 318 319 320 317 316 319 318 318 319 318 319 321 322 323 323 322 321 320 321 321 317 315 318 325 325 319 315 315 321 332 329 327 331 330 330 330 328 330 327 320 319 320 321 325 325 326 325 324 323 321 323 326 328 330 328 328 323 313 307
319 319 319 318 317 315 314 314 314 313 313 313 314 318 319 317 316 315 313 312 315 319 320 322 320 317 317 319 319 317 318 320 317 317 319 318 318 318 318 320 320 321 325 322 320 322 323 322 319 317 317 319 323 324 323 321 319 321 325 327 330 331 331 335 333 326 327 325 318 316 320 324 325 326 325 322 320 322 322 320 320 320 320 318 318 319 314 308
318 318 318 317 317 316 315 314 314 313 313 314 316 318 319 316 315 315 313 311 319 321 321 322 318 316 317 320 321 318 318 320 318 318 319 318 320 320 320 320 318 322 329 323 320 324 324 323 321 320 321 320 319 320 325 325 320 319 323 325 328 331 333 338 337 332 331 329 320 315 321 329 331 328 325 322 322 325 325 321 318 317 315 312 312 313 312 308
317 318 317 317 317 316 315 314 314 313 313 314 317 318 317 316 317 318 315 312 321 326 322 318 318 318 319 322 321 318 318 320 317 318 320 319 320 320 319 320 317 321 327 322 322 323 322 326 325 320 318 318 318 321 324 324 320 320 322 324 326 329 329 330 327 325 326 328 324 320 323 328 328 325 321 320 324 326 321 317 318 322 316 312 314 314 312 308
314 316 317 316 316 316 315 314 314 313 314 315 318 319 317 317 318 319 316 313 321 326 321 319 321 322 320 321 321 318 317 321 319 319 320 319 321 320 319 319 317 318 319 318 324 326 324 327 322 315 318 317 317 321 321 322 323 321 320 323 323 320 323 326 322 317 319 326 327 324 325 326 325 324 321 319 322 321 318 317 319 320 316 314 316 315 313 308
313 315 316 316 316 316 315 314 314 314 315 316 318 318 317 318 318 317 318 316 320 323 321 321 322 323 322 321 323 320 319 321 320 320 322 320 321 322 319 320 319 317 317 319 325 325 326 328 320 315 320 315 312 319 320 317 320 322 324 324 319 317 323 329 328 325 325 329 328 324 325 326 326 326 322 318 319 322 322 322 321 319 316 316 316 313 311 308
313 315 316 316 316 316 315 314 314 314 316 316 317 318 317 317 317 316 320 321 320 321 321 320 318 321 323 322 323 321 319 321 320 320 322 320 321 323 319 320 320 316 317 319 323 323 323 325 322 315 318 315 312 318 321 315 314 321 325 323 322 327 329 326 328 331 330 330 331 327 324 322 323 325 323 320 325 331 328 325 328 330 326 322 320 316 310 305
313 315 316 316 316 316 315 313 314 315 317 316 316 316 316 316 316 316 318 320 319 319 318 318 317 319 323 322 322 321 319 321 320 320 322 320 320 322 318 319 321 317 316 317 320 324 322 322 324 314 312 316 316 319 323 320 315 316 318 318 320 326 327 326 327 328 329 331 332 330 327 324 324 326 325 322 326 330 328 326 332 337 331 324 325 322 312 305
312 314 316 316 316 316 315 313 314 316 317 316 315 315 314 315 316 315 316 316 317 318 316 316 317 319 322 321 321 323 321 320 320 319 322 320 320 322 318 318 321 318 316 316 318 323 322 320 324 317 312 317 321 320 322 321 319 318 319 320 320 320 322 326 324 323 327 331 331 331 328 325 327 326 327 326 324 323 325 327 334 339 328 320 323 323 315 307
313 314 315 316 316 316 314 313 315 317 316 314 313 313 313 314 315 315 316 315 316 318 316 316 318 317 321 321 320 322 321 320 320 320 321 319 319 322 320 319 322 319 317 318 318 321 322 322 325 322 317 320 323 319 316 318 319 320 321 321 320 320 321 324 323 322 325 327 328 329 327 325 329 325 323 327 326 322 323 325 333 337 326 319 321 322 315 308
313 314 315 316 316 315 314 315 316 316 315 313 312 312 312 314 315 315 315 315 315 317 317 318 318 317 319 321 321 321 321 321 320 319 321 320 319 320 320 319 320 318 317 319 319 320 323 326 327 325 321 320 319 314 311 315 317 317 319 322 321 320 321 325 326 324 324 323 322 323 325 325 324 320 320 322 322 322 321 321 328 330 320 316 319 320 314 307
313 314 314 315 316 314 314 316 317 316 315 313 312 313 314 315 316 315 314 314 315 315 317 318 319 318 318 320 321 321 322 322 320 319 321 320 318 319 321 320 318 318 318 321 321 321 323 324 325 326 325 321 318 314 311 313 315 316 320 322 321 320 320 324 325 324 325 325 322 323 326 324 318 318 320 319 316 317 318 317 322 326 321 316 315 318 314 306
313 314 313 314 314 314 315 317 318 317 315 313 313 313 314 316 317 315 314 315 315 315 315 316 319 319 317 320 321 320 321 321 321 319 319 321 320 318 321 321 317 318 319 321 321 320 321 324 325 327 329 327 323 320 317 315 316 320 322 321 319 320 320 322 322 322 325 326 324 325 327 323 320 320 321 318 316 318 320 317 314 320 327 324 317 315 310 304
312 313 313 312 313 314 315 316 317 317 315 314 315 315 314 316 317 316 316 315 314 315 315 315 318 319 319 321 321 319 320 320 321 321 319 321 321 316 318 320 318 317 319 319 319 318 321 325 324 324 327 327 326 326 325 320 317 320 323 319 318 319 320 321 322 322 324 325 324 324 325 323 323 322 320 318 318 320 323 322 316 315 318 319 316 312 306 302
311 313 313 312 312 314 315 315 316 317 316 315 316 316 315 316 316 316 317 317 315 315 315 315 317 319 320 321 320 320 320 319 320 322 321 322 322 318 316 317 318 318 319 319 319 320 325 325 322 323 325 324 325 325 325 323 319 320 322 319 318 319 319 320 322 323 324 325 324 323 322 323 323 323 321 321 323 323 323 324 323 318 315 314 313 309 304 302
308 311 313 313 313 314 314 314 315 317 316 315 315 316 316 316 316 316 317 318 318 317 315 316 318 318 319 320 319 319 320 319 320 322 321 320 321 317 313 313 316 317 318 319 319 322 327 325 322 324 323 322 324 324 323 324 322 321 321 320 318 318 318 320 322 322 323 325 325 322 322 323 322 321 323 324 323 324 324 324 323 320 321 319 313 307 306 304
307 309 311 312 312 314 314 313 313 314 315 315 315 316 317 316 316 316 317 317 318 318 318 318 318 318 318 318 319 319 320 320 320 320 320 320 319 317 314 313 314 314 316 319 318 320 325 325 323 324 324 322 323 324 324 325 323 321 321 320 319 318 318 319 320 321 322 324 324 322 323 324 321 319 321 322 322 323 321 320 317 316 319 318 312 312 315 310
307 308 308 309 310 313 313 313 313 313 312 313 314 314 316 317 316 316 316 316 317 317 318 319 318 318 318 318 318 319 319 320 320 319 319 319 319 320 318 317 315 313 315 319 319 320 322 323 323 324 323 323 323 324 324 323 322 321 321 320 319 318 317 318 319 320 321 321 322 322 324 324 320 320 321 320 321 320 317 318 318 316 319 321 319 322 323 318
306 307 307 308 309 310 310 311 313 312 311 311 312 312 313 315 316 315 316 317 317 316 317 318 318 318 318 318 318 319 318 319 320 320 319 319 319 319 319 320 319 315 314 317 319 319 319 322 324 323 322 323 323 322 322 321 321 322 320 320 319 318 317 318 318 319 320 321 321 321 323 322 319 322 324 322 321 319 317 319 321 319 321 323 323 323 323 319
304 304 305 306 307 309 309 310 311 312 311 311 311 311 311 313 314 314 315 315 316 317 316 317 318 318 318 318 319 319 318 318 319 319 319 318 318 317 317 320 322 318 314 316 318 318 318 322 325 322 322 323 322 322 322 319 318 320 320 320 319 318 318 318 318 319 319 320 321 321 322 321 320 322 325 324 323 320 319 319 319 319 320 322 323 322 321 321
303 303 304 304 306 308 310 310 310 311 312 311 310 310 311 312 312 313 314 314 315 316 316 316 317 317 318 319 318 318 318 319 319 320 320 319 318 318 318 319 320 318 315 315 317 318 318 320 322 322 322 323 322 323 321 318 318 320 320 320 319 318 318 318 318 318 318 319 320 321 321 319 321 324 325 323 322 321 320 319 318 319 319 318 318 319 321 323
Wind_Speed
4 3 2 2 2 3 4 4 4 3 4 4 4 4 4 4 4 4 4 3 3 4 4 5 5 6 7 8 9 10 10 9 9 7 4 3 3 3 3 2 3 5 4 4 6 3 3 5 8 9 5 3 4 2 3 3 3 5 4 4 2 4 4 6 7 7 5 2 5 4 2 7 4 2 2 0 5 4 1 2 2 4 3 2 2 1 5 12
5 5 3 2 2 2 3 3 4 4 4 3 3 4 4 4 4 3 3 2 3 4 4 4 4 5 6 8 9 9 10 9 7 5 3 3 4 4 5 3 3 4 3 4 6 5 4 4 7 8 6 3 3 3 3 2 4 4 3 3 3 6 5 6 8 7 3 1 4 3 1 4 5 3 3 2 2 3 0 3 4 5 5 2 1 3 8 14
5 5 4 3 3 2 2 2 2 3 3 3 3 3 3 3 3 3 2 2 3 3 3 3 4 5 6 7 8 9 9 7 4 3 3 2 3 4 4 3 2 2 4 5 6 5 3 1 3 5 4 3 2 3 3 4 2 2 4 2 5 6 4 4 7 7 4 3 5 3 1 1 3 3 2 3 1 1 4 5 2 4 7 5 4 4 10 14
5 5 4 3 3 3 1 1 1 1 1 2 2 2 2 2 3 3 2 2 2 2 2 2 4 5 6 7 7 8 7 5 1 2 3 2 2 3 4 3 1 3 4 5 5 5 4 3 4 5 4 3 4 3 3 3 1 2 4 3 5 4 2 4 7 6 5 4 5 4 3 0 3 2 1 5 3 4 7 8 8 9 9 8 6 6 11 13
5 4 3 3 3 2 2 1 0 0 1 1 1 2 2 2 2 2 2 2 2 2 2 2 3 4 5 6 6 7 5 5 2 1 2 2 5 6 5 4 3 4 5 6 4 4 4 4 6 6 4 3 5 4 2 3 2 2 1 3 5 4 1 2 5 4 4 4 4 5 4 2 1 1 2 7 5 6 6 6 9 8 8 10 9 9 10 11
6 5 3 3 2 2 1 1 1 1 1 1 1 2 2 2 2 1 2 2 1 1 1 1 2 4 5 5 6 5 4 2 3 1 2 3 5 5 6 4 4 4 5 6 5 4 4 5 6 4 3 3 3 3 1 4 2 2 1 1 3 3 0 0 2 3 5 6 6 5 3 2 3 2 2 7 9 7 4 5 7 7 7 11 11 10 9 10
7 6 4 2 2 1 1 1 1 2 2 1 1 1 1 1 1 1 1 1 1 0 1 1 2 3 4 4 4 5 4 2 3 3 4 4 5 5 6 4 4 5 5 6 6 4 4 7 5 3 4 4 0 1 1 4 4 5 1 1 2 3 2 2 2 2 4 5 5 3 2 2 4 4 1 5 11 5 2 3 3 4 7 12 11 9 9 10
7 6 5 3 2 2 1 1 2 2 2 3 2 1 1 1 1 1 2 0 1 0 0 1 2 2 3 2 2 4 2 3 2 6 6 5 5 4 4 4 4 5 6 8 6 3 3 5 3 3 4 2 3 2 2 3 4 5 2 2 1 1 4 3 3 3 2 1 1 2 1 3 5 3 1 8 10 3 0 2 4 6 9 10 8 8 8 9
6 5 5 4 4 3 3 2 1 1 2 3 3 3 2 1 1 1 2 0 0 0 0 1 2 2 2 2 5 3 3 3 3 8 7 6 5 3 2 4 5 5 6 8 6 3 2 1 2 3 3 2 3 2 3 1 1 0 2 1 1 1 5 3 1 2 1 2 2 2 4 5 2 1 4 10 7 3 3 5 5 7 7 7 6 7 8 8
7 6 5 4 4 4 3 2 2 1 2 1 3 4 3 2 1 2 2 1 0 0 1 1 1 2 2 3 6 1 4 2 3 8 7 6 5 2 1 4 5 5 6 6 6 6 3 4 4 4 5 3 3 1 2 1 1 1 2 1 2 3 4 2 0 2 1 2 2 4 6 4 3 1 5 6 3 5 6 5 3 6 7 7 5 6 8 9
8 7 6 5 4 2 2 2 2 2 2 3 4 5 5 3 1 2 2 2 1 1 1 1 2 2 2 4 5 3 3 2 4 8 7 7 5 2 1 3 4 4 4 6 6 6 4 6 7 5 2 1 2 2 2 1 2 2 2 1 3 6 5 0 2 4 1 2 5 6 4 3 3 1 7 4 3 5 6 6 4 5 6 6 5 5 7 8
9 8 6 6 3 2 2 1 0 1 2 3 4 6 6 5 3 2 2 2 1 2 2 2 3 2 3 4 3 5 3 2 3 6 7 6 5 3 2 3 4 4 3 4 5 4 4 4 6 5 0 2 2 1 1 1 2 1 3 0 6 8 5 3 2 3 2 2 5 5 3 4 3 7 6 1 3 3 5 6 5 6 6 5 5 4 5 8
9 8 7 7 4 2 3 2 1 1 2 2 4 6 6 5 4 2 2 1 2 3 3 3 3 3 3 1 3 5 6 3 3 6 6 5 4 3 3 3 4 5 4 6 5 5 5 2 6 6 2 4 2 1 3 4 3 1 3 2 4 7 6 5 2 1 3 3 3 4 3 6 8 11 6 1 5 5 4 7 6 6 5 4 5 4 5 7
9 7 7 7 6 5 4 3 2 1 2 2 3 5 6 5 4 1 2 2 2 3 3 4 3 3 4 2 4 4 7 6 4 5 6 6 5 4 3 3 3 5 6 8 6 7 6 3 7 7 2 3 1 1 4 6 4 1 2 2 3 2 5 7 2 3 4 1 1 4 3 7 9 10 6 1 6 7 7 8 7 6 6 5 5 5 6 7
9 7 5 5 5 4 3 4 4 3 2 2 3 4 6 5 3 1 3 3 4 4 4 4 4 4 3 3 4 3 6 6 5 6 6 6 5 4 3 3 4 6 6 7 7 8 7 5 6 5 1 2 3 4 4 5 4 3 1 3 3 2 5 9 3 5 4 1 2 4 3 8 9 8 6 1 5 6 8 8 7 7 7 6 6 6 6 6
9 7 5 3 2 1 1 2 3 3 2 1 1 3 4 3 1 3 5 5 6 6 5 4 4 5 2 2 2 3 5 5 5 7 7 6 6 4 5 5 5 6 6 6 6 6 8 7 4 3 1 2 5 5 3 4 4 4 1 3 2 3 3 6 3 3 1 1 0 3 3 5 6 5 5 1 6 6 7 8 8 8 8 7 6 6 6 6
8 7 5 3 2 1 1 1 1 1 2 3 2 2 3 3 3 5 7 9 9 7 6 5 4 4 0 2 2 4 3 4 5 7 8 7 5 6 6 5 5 6 6 6 5 4 7 6 1 1 3 3 3 4 3 2 4 4 1 2 4 3 2 3 4 3 0 2 3 3 4 7 8 5 2 2 6 6 8 10 10 8 7 7 6 6 7 7
9 7 5 4 3 2 1 1 2 2 4 4 4 5 7 6 5 7 10 11 10 9 6 3 4 2 3 3 2 2 2 5 6 8 9 8 6 6 6 5 5 6 6 5 4 3 4 4 2 1 3 3 1 5 3 5 4 3 3 2 3 3 3 4 5 2 3 1 3 3 4 12 14 10 6 5 6 7 10 10 9 8 7 7 7 8 9 9
10 8 6 4 3 2 1 1 1 2 4 4 6 9 9 8 6 7 7 7 5 4 1 3 3 3 4 3 1 3 5 7 7 7 9 9 8 8 8 7 6 6 4 1 2 2 2 3 4 2 1 3 4 7 8 7 5 5 5 5 4 4 3 5 6 5 3 2 4 7 8 11 13 13 10 6 6 7 10 9 8 8 7 7 8 9 10 10
11 9 7 4 4 2 2 1 0 3 3 4 8 8 6 4 4 2 0 1 3 3 2 4 5 3 0 2 1 7 8 6 4 5 8 10 11 10 6 5 6 5 3 3 1 1 3 3 2 4 7 9 9 9 6 4 6 5 4 3 3 4 4 6 5 5 2 2 6 8 9 10 11 13 12 5 4 7 10 10 11 10 9 9 10 11 11 11
12 11 8 6 5 3 2 0 2 6 4 5 8 5 3 3 3 1 2 4 9 7 3 2 2 2 1 1 5 7 5 3 3 3 9 10 12 10 1 3 4 1 1 3 3 2 4 4 7 10 10 8 7 7 5 4 4 4 3 2 3 3 5 7 4 4 1 2 6 6 7 11 11 13 12 5 4 9 12 12 14 14 12 10 11 13 11 7
14 12 10 8 5 4 2 1 5 8 4 5 5 3 2 3 4 2 2 1 9 10 8 3 2 4 3 2 6 5 3 3 2 2 8 8 7 6 1 4 5 3 1 2 3 1 1 4 12 10 5 5 4 5 6 3 3 3 3 1 3 3 4 7 4 5 2 3 5 6 7 10 11 11 12 10 10 11 11 13 15 14 12 11 12 12 9 7
15 13 12 9 7 6 2 1 8 8 5 6 5 3 3 5 6 4 3 1 5 5 6 6 5 5 3 2 7 7 1 3 4 4 9 9 4 4 4 5 5 4 3 4 5 4 2 6 10 6 7 6 3 4 6 4 1 2 3 2 4 3 1 4 4 4 0 2 3 5 8 9 9 9 12 14 12 9 10 14 14 12 12 13 11 9 9 10
16 15 13 11 9 8 3 4 8 6 7 9 8 6 6 7 6 5 2 0 4 4 3 7 7 6 6 4 8 10 3 3 4 5 12 11 5 3 5 5 5 4 4 8 8 6 5 5 2 5 7 8 5 4 7 4 3 4 6 6 5 4 6 6 4 5 3 2 3 4 8 8 6 8 10 8 5 6 11 13 13 13 13 10 7 7 10 11
18 17 15 13 11 10 7 7 8 8 9 8 10 11 8 5 5 5 3 1 3 5 3 4 4 6 11 7 10 10 2 3 4 7 14 14 9 4 3 3 4 5 7 6 5 5 7 5 3 6 4 6 6 4 6 7 4 5 5 9 10 8 7 5 4 6 5 4 4 4 5 7 4 5 8 5 4 6 9 10 13 14 11 7 8 9 9 9
21 20 17 15 13 13 9 6 9 10 9 8 10 11 11 6 4 4 3 3 4 4 0 4 3 7 12 8 9 7 2 5 4 7 15 15 9 5 3 2 2 4 6 4 2 3 4 2 4 6 5 6 6 4 6 8 5 4 5 8 10 7 4 4 2 2 1 4 3 4 1 7 5 5 8 6 6 9 9 10 13 11 9 7 8 9 8 8
24 23 21 18 17 18 11 4 9 11 7 7 10 12 13 10 4 1 3 4 4 3 4 2 1 6 9 8 11 8 2 5 2 6 10 11 7 3 3 5 2 2 4 4 2 3 4 2 4 6 6 5 6 4 6 8 7 4 4 5 7 6 5 5 4 3 3 3 4 3 3 5 9 6 6 5 6 8 10 14 14 9 9 9 8 8 8 9
28 27 24 22 22 24 14 7 13 13 7 3 7 15 14 12 8 2 4 1 4 2 4 1 1 4 4 6 10 7 2 3 5 3 3 7 6 3 2 8 6 6 5 5 4 4 4 6 6 7 5 4 6 5 7 11 5 5 2 5 6 6 5 4 5 3 1 2 4 2 3 3 9 5 1 1 3 6 11 16 14 9 9 8 8 9 9 9
31 29 29 26 25 26 17 11 13 14 13 5 7 17 17 12 8 4 4 3 2 1 2 1 2 1 3 5 5 2 2 1 2 3 2 4 4 3 3 7 5 6 4 4 6 2 1 5 7 8 5 6 4 2 6 11 5 4 6 7 6 5 5 5 4 3 2 2 5 6 6 3 8 4 3 3 2 7 11 12 10 9 8 7 7 8 7 7
32 31 32 28 27 28 19 13 14 13 14 10 8 20 19 9 5 4 2 4 1 0 0 1 2 1 7 9 3 1 3 2 1 1 3 1 1 5 2 3 6 5 1 3 4 3 2 1 2 4 4 5 4 3 2 6 5 5 6 6 6 5 5 4 2 4 2 5 5 8 10 6 6 3 4 3 4 6 8 8 7 7 8 7 6 6 6 6
33 33 34 32 32 32 20 13 19 15 11 11 15 22 15 4 3 4 5 2 1 1 2 1 1 4 10 11 5 2 3 2 0 4 3 1 2 3 1 2 4 4 1 5 4 4 3 1 1 2 2 4 7 5 3 3 4 5 4 4 4 3 4 4 4 4 1 5 3 3 6 7 7 6 3 5 6 6 7 7 8 8 8 7 6 5 5 5
30 35 37 37 34 34 24 16 23 20 10 14 20 15 6 2 2 5 5 1 0 3 4 3 3 6 9 6 4 6 4 2 3 5 5 4 5 5 6 6 5 2 2 6 3 3 3 5 3 1 1 4 6 4 4 4 2 3 4 6 4 2 3 2 3 1 3 6 3 1 1 4 9 8 5 10 13 10 9 9 9 9 10 8 5 5 5 5
23 32 38 39 35 35 29 21 24 23 16 18 15 4 3 5 6 8 8 3 2 2 2 3 2 6 10 6 4 5 3 2 5 4 3 4 6 7 7 6 5 3 2 5 3 1 3 4 1 2 2 3 8 6 3 1 3 5 5 6 5 2 1 3 3 2 4 5 3 1 1 3 6 5 9 16 16 11 8 9 10 9 11 9 5 4 5 5
16 28 37 40 38 37 33 25 25 26 23 17 8 3 5 6 7 10 12 8 1 1 2 4 5 5 7 4 4 6 4 3 6 5 3 5 5 6 6 7 6 2 3 3 3 5 4 5 4 7 3 6 10 8 5 6 5 5 4 5 5 5 5 4 3 4 5 4 3 2 1 4 3 3 8 11 10 8 6 7 7 8 9 7 5 4 5 6
11 22 33 37 36 36 34 29 28 31 27 15 6 6 9 8 6 8 11 7 2 2 3 3 7 6 4 2 3 5 4 2 5 5 4 6 6 7 7 8 11 6 4 4 2 3 4 6 6 3 1 9 11 4 5 7 3 3 2 4 3 5 5 2 3 5 2 3 4 2 4 5 4 6 9 7 9 9 7 6 6 9 9 4 5 6 5 6
8 14 24 30 31 33 34 30 31 34 25 11 6 8 9 9 8 7 6 5 4 5 6 3 4 4 5 2 2 5 2 2 5 4 3 4 4 6 7 7 11 12 9 7 3 2 3 5 4 2 2 4 5 2 3 3 3 2 3 4 4 4 6 2 2 1 3 3 4 3 5 6 3 8 10 8 11 12 8 8 9 10 8 5 6 6 6 6
6 7 14 21 28 33 34 32 36 33 17 8 8 9 9 9 8 6 4 3 5 8 8 3 3 5 6 4 4 6 3 2 4 5 4 3 3 6 8 4 7 15 14 7 2 3 4 3 4 2 1 2 0 3 3 3 3 5 3 6 2 2 2 3 1 2 3 3 4 2 6 6 3 6 5 1 7 11 11 10 9 9 6 6 8 7 7 7
5 4 8 18 28 33 33 36 37 25 9 5 8 8 9 10 10 7 4 4 6 8 7 6 5 6 7 6 5 7 6 3 5 6 4 3 5 8 11 5 6 15 16 7 2 3 3 2 4 2 2 3 4 3 2 4 2 5 4 5 4 2 2 2 2 2 1 4 5 3 4 4 6 6 2 2 7 10 10 7 6 8 6 6 8 7 7 6
5 3 6 16 28 31 34 39 31 15 5 6 7 7 7 10 12 8 3 2 4 7 8 8 6 4 5 7 5 6 8 7 8 7 4 5 6 6 13 10 6 11 14 10 5 3 2 3 3 2 1 1 3 2 4 1 2 3 2 3 3 2 3 3 3 3 3 3 4 3 5 5 8 7 7 10 11 10 8 5 6 9 7 6 7 6 6 6
5 3 3 11 24 32 38 33 17 7 6 8 8 7 6 8 10 8 6 5 3 4 7 8 8 6 6 7 5 5 8 8 9 8 5 7 6 5 9 11 5 5 10 11 7 1 2 3 3 2 3 1 2 4 8 10 7 4 4 5 3 1 2 1 1 2 4 2 2 2 7 9 6 5 9 12 11 10 9 7 8 8 5 6 7 6 5 6
4 4 3 11 25 35 34 19 7 6 6 5 7 7 8 7 5 6 10 9 5 2 2 4 6 6 6 7 5 4 6 6 7 7 5 7 8 6 7 11 10 8 7 7 8 5 3 3 3 2 1 4 5 4 4 8 7 7 7 8 9 6 4 2 2 1 3 2 4 3 7 13 6 5 8 9 9 9 8 8 8 7 5 6 7 6 6 6
5 5 4 16 33 37 22 7 5 7 6 7 9 9 7 6 4 6 9 10 9 5 0 1 6 7 5 6 7 5 6 5 6 7 5 8 12 9 7 10 14 15 12 8 9 7 4 3 3 3 4 6 6 2 1 2 2 3 2 4 5 4 4 6 5 4 3 2 1 4 4 13 5 5 6 5 4 5 4 6 7 7 6 6 6 6 6 6
5 5 3 19 41 36 13 5 8 7 5 7 11 10 7 4 5 8 8 10 10 7 5 4 5 7 6 5 6 7 7 6 8 10 8 9 12 8 6 9 12 15 11 5 4 3 3 3 3 3 2 3 3 2 2 2 3 2 1 3 5 7 7 6 4 4 4 4 3 4 5 12 3 2 3 1 2 4 3 5 7 8 6 5 6 7 5 5
3 3 1 16 38 32 10 6 9 7 7 8 9 12 9 5 6 9 10 12 10 7 9 8 4 6 7 4 5 8 10 8 8 12 11 8 7 3 6 12 12 12 10 6 7 7 4 4 5 2 1 3 3 2 2 0 2 3 4 5 8 11 8 3 1 2 3 8 10 6 9 12 3 3 3 1 2 6 6 6 7 7 6 5 5 6 5 5
2 2 0 8 22 18 7 8 9 8 9 11 12 13 13 8 5 9 11 13 11 8 8 9 6 5 4 4 4 6 11 12 9 10 9 7 4 2 4 12 13 12 8 4 8 10 7 6 7 6 7 8 8 7 5 4 3 1 5 8 9 11 12 7 3 3 6 9 9 8 13 12 2 4 6 4 3 6 7 6 6 7 7 5 4 5 5 5
2 2 2 3 7 7 6 6 9 9 9 11 11 11 15 13 6 7 9 8 10 10 9 7 6 6 4 5 6 7 11 14 11 5 5 8 4 2 2 9 13 12 3 2 5 7 4 5 10 12 13 13 14 10 5 9 7 7 11 13 13 13 15 11 6 7 9 5 5 13 20 16 9 7 7 7 6 7 8 6 6 7 7 6 5 5 5 5
3 3 3 3 3 6 6 5 7 8 8 11 8 7 14 16 9 6 6 6 7 9 10 8 5 8 9 10 10 10 10 11 9 6 6 7 3 2 1 3 8 9 1 2 4 5 3 5 12 16 18 18 18 14 8 13 13 17 18 17 17 17 16 14 13 16 12 5 9 21 19 17 21 14 9 9 8 7 8 9 8 7 6 5 5 5 5 5
3 3 2 1 1 4 7 8 9 8 8 10 8 7 13 16 13 8 6 5 6 7 7 7 8 12 15 16 14 11 9 8 8 10 10 7 3 1 1 1 4 5 4 1 3 4 3 6 9 14 18 19 20 15 10 13 14 16 19 20 20 20 19 19 22 25 17 10 18 24 14 16 25 19 12 11 9 9 11 10 6 4 3 4 5 5 5 6
3 3 3 1 1 3 4 7 10 12 12 9 6 7 12 15 16 13 7 6 7 9 9 9 13 17 19 18 15 12 11 10 10 12 12 9 6 4 3 3 2 3 5 4 3 3 4 6 9 13 15 17 21 17 12 14 14 13 15 18 20 21 24 26 28 29 23 18 23 23 15 18 22 15 11 11 10 11 7 3 4 5 6 6 6 6 6 7
3 1 2 1 2 3 5 5 5 8 10 8 5 6 8 10 14 12 9 9 8 10 12 15 17 18 19 19 16 15 16 15 15 15 13 11 9 6 5 5 3 3 5 6 4 2 5 7 8 9 9 13 19 19 14 13 14 13 12 13 16 20 26 29 27 24 20 20 24 21 16 19 14 5 8 9 10 9 6 5 8 9 7 7 6 7 8 8
6 3 1 2 2 4 4 4 3 5 7 7 6 6 7 11 13 10 8 10 11 9 12 17 20 16 14 16 17 18 20 19 19 17 12 11 12 9 7 7 7 7 7 7 5 3 5 5 1 3 7 12 17 19 15 9 7 9 9 12 18 22 23 23 21 19 19 20 21 16 14 18 9 7 8 9 9 10 12 12 11 9 8 8 8 9 9 9
7 5 2 2 3 4 4 4 5 5 5 6 8 9 10 12 13 10 6 5 9 11 10 14 19 15 12 16 19 20 21 18 15 11 6 8 9 6 4 5 7 9 9 8 6 5 7 6 4 6 8 12 16 17 10 6 3 8 13 21 27 25 19 14 15 19 20 17 15 13 17 21 10 7 7 8 9 12 14 12 10 9 9 8 9 10 9 10
Wind_Direction
196 191 208 192 212 224 208 203 199 215 220 218 223 225 228 227 228 224 228 234 238 255 264 274 291 304 316 321 321 323 325 324 323 317 301 274 271 248 232 278 325 330 336 350 7 25 25 23 1 10 60 64 11 345 13 23 59 55 77 95 143 178 196 187 179 192 173 197 224 237 191 143 174 211 159 43 37 50 9 343 312 318 300 234 248 211 165 157
198 197 202 197 202 221 227 216 203 214 222 224 221 221 229 225 230 233 227 233 239 250 262 276 296 308 322 326 324 327 328 328 329 326 315 280 270 237 230 271 306 326 351 15 26 42 54 357 344 19 50 44 352 349 25 13 59 84 106 100 199 195 202 195 177 188 169 132 191 211 167 154 188 172 133 203 316 23 122 285 337 328 291 251 221 161 161 160
203 202 204 206 201 195 220 227 213 218 222 223 216 215 227 217 220 229 223 227 234 248 266 286 307 317 330 329 328 332 331 340 341 335 356 323 270 232 227 243 275 0 26 36 33 36 60 12 6 41 47 52 359 356 41 11 24 136 109 99 233 210 219 215 184 195 195 143 154 189 162 177 225 169 147 191 182 29 211 228 241 260 250 224 217 157 156 165
206 204 212 220 210 203 202 215 214 231 259 239 219 211 203 195 205 216 216 225 240 256 271 306 321 325 334 332 336 333 342 21 352 309 17 22 105 137 155 156 119 53 38 38 41 36 55 83 60 56 61 47 341 12 51 350 339 118 105 164 223 185 199 218 196 204 197 156 146 156 126 229 245 182 169 148 145 270 242 224 209 218 216 198 209 181 165 169
207 210 224 223 213 212 191 200 259 16 292 276 238 215 188 185 201 204 207 225 244 262 292 324 325 331 337 338 342 334 8 51 286 294 47 85 105 111 120 115 89 63 42 38 43 51 57 61 57 48 53 42 349 24 37 318 62 72 64 187 193 152 121 220 194 184 156 129 116 126 150 195 175 172 173 154 188 239 229 235 222 216 198 183 186 177 171 171
209 214 228 228 219 221 193 212 283 318 295 295 261 218 186 189 195 189 196 215 234 271 324 328 334 338 339 344 344 351 61 75 279 185 120 121 110 110 106 84 63 49 36 40 38 55 51 37 54 50 44 50 3 41 22 312 40 94 329 281 205 197 303 329 178 174 131 120 145 161 184 141 104 272 213 172 219 226 221 259 239 237 203 174 164 163 171 177
210 213 218 221 221 239 267 294 284 311 336 329 289 220 194 205 198 192 180 202 224 237 338 324 339 339 346 353 351 26 79 261 275 163 171 137 127 116 89 59 48 35 33 45 33 66 68 42 68 116 81 70 212 88 18 316 31 89 110 303 205 206 248 313 58 143 125 136 191 187 131 137 176 238 20 209 241 248 273 283 223 211 170 157 154 164 178 180
216 210 207 207 214 229 243 280 280 303 354 0 344 335 266 261 227 192 166 207 250 231 303 332 347 358 0 13 53 30 11 269 226 169 178 154 146 119 85 49 42 31 48 51 35 103 89 50 105 152 85 80 173 105 353 329 26 64 138 237 152 200 274 302 57 103 122 182 201 108 177 228 202 195 325 246 247 259 33 70 106 126 133 150 161 171 177 177
217 208 208 201 204 217 212 210 229 346 19 13 353 345 311 266 247 203 180 212 291 223 3 31 349 21 23 70 84 42 283 273 204 178 176 172 161 125 83 45 39 29 57 53 40 86 93 106 183 180 152 153 133 81 347 24 353 126 149 220 79 345 318 329 77 80 41 279 107 140 258 280 265 220 272 257 235 175 111 86 105 127 138 165 170 176 178 179
211 209 211 204 205 218 203 170 147 100 49 22 354 348 326 285 231 191 191 214 179 164 64 50 3 51 71 83 86 97 272 313 210 185 177 182 172 149 65 38 29 29 57 56 50 64 85 167 173 144 142 123 104 73 344 70 136 146 119 104 61 341 322 30 268 325 357 278 170 189 257 288 334 323 254 268 193 150 113 104 140 147 166 182 177 191 188 190
207 207 211 211 205 194 153 131 137 124 66 30 8 356 340 328 291 208 204 202 159 114 90 75 50 64 68 78 108 193 273 355 206 187 183 188 178 175 61 31 19 39 62 65 66 66 87 156 147 121 123 113 115 39 353 119 115 101 108 128 351 342 316 16 274 281 255 247 183 172 250 284 6 257 238 260 164 162 134 149 186 177 192 195 192 203 197 205
204 201 208 214 196 140 152 183 149 103 43 22 4 356 350 338 319 255 216 188 149 110 104 92 75 87 64 61 143 216 261 351 220 194 192 192 175 163 73 34 27 43 58 79 82 68 77 148 123 97 287 152 135 31 67 107 81 39 73 135 312 354 339 277 273 269 182 201 183 154 287 279 219 227 244 332 144 135 132 175 207 205 215 214 214 219 212 217
215 203 201 209 207 195 189 196 229 294 337 357 351 348 348 342 336 297 212 180 146 118 109 103 86 90 81 44 232 235 255 284 252 207 199 192 167 141 75 47 43 47 62 92 94 66 66 137 112 104 127 109 121 195 105 50 43 329 43 62 321 0 332 288 358 40 161 177 176 147 279 270 239 243 262 80 144 124 152 210 220 218 228 226 227 229 229 226
232 224 207 205 211 218 205 178 207 261 299 328 334 335 340 342 334 283 174 152 137 122 107 104 98 94 91 248 255 263 260 260 249 216 205 196 168 137 94 66 63 64 72 88 84 60 65 97 100 97 92 86 121 106 42 11 24 19 14 39 12 7 284 291 336 129 155 182 101 126 234 269 263 264 284 226 166 158 198 226 222 225 231 226 230 227 233 231
235 237 224 209 209 219 206 192 211 228 242 280 317 331 339 334 314 214 148 140 124 114 105 103 102 92 69 286 273 284 262 247 229 215 206 199 175 141 112 96 85 82 76 79 81 68 63 79 80 73 17 2 63 73 28 355 16 36 324 309 350 176 267 303 279 167 161 356 63 132 213 275 276 277 302 254 181 185 216 234 227 229 231 224 231 226 235 243
235 235 232 220 211 218 217 212 218 217 221 243 338 340 350 359 22 125 133 119 110 106 95 93 97 94 84 278 283 288 256 222 209 204 198 191 177 146 123 109 83 79 82 78 86 72 46 50 59 58 98 45 68 83 46 11 345 0 91 249 265 181 274 315 301 213 204 66 132 202 225 281 278 280 319 179 181 201 234 249 240 232 233 227 228 227 234 243
235 236 233 225 216 222 272 285 291 210 141 120 99 41 47 67 87 114 118 107 101 92 83 98 104 91 105 254 262 271 234 185 190 187 181 171 160 146 127 104 75 78 81 69 71 49 25 36 55 334 46 55 84 97 58 329 282 313 17 238 242 199 214 296 310 292 60 113 216 223 229 254 260 264 304 187 185 199 229 245 242 235 234 228 225 229 231 228
236 239 235 226 213 212 237 270 327 59 111 111 95 89 86 82 91 114 121 113 96 73 61 85 90 73 264 247 218 227 136 153 168 163 163 153 141 140 123 98 90 81 57 37 37 39 17 24 58 41 24 9 62 108 150 226 212 199 191 201 250 236 214 255 284 252 139 138 230 213 236 254 264 270 257 221 189 198 228 242 247 243 236 230 225 228 229 224
237 239 235 228 208 202 206 226 335 99 123 101 105 106 91 75 80 108 122 116 106 96 161 214 145 138 226 249 194 102 96 124 146 151 151 144 135 124 105 89 88 82 74 64 344 24 67 48 64 92 227 237 195 171 195 205 163 164 175 157 191 229 251 235 249 258 191 166 235 225 234 249 262 269 264 241 193 210 242 253 257 251 235 228 227 230 228 225
239 238 237 226 204 193 180 216 223 150 140 121 128 118 95 75 59 39 300 239 214 173 147 214 202 167 146 307 110 112 107 105 117 149 147 147 139 118 84 53 57 59 98 162 212 9 100 119 157 202 213 212 205 195 187 157 123 120 134 140 194 212 271 257 254 289 244 175 244 233 236 253 258 265 268 249 182 224 251 254 254 246 232 228 227 231 228 227
237 236 238 225 207 194 172 231 163 155 145 148 145 120 127 145 112 253 255 269 263 251 243 260 240 227 253 218 165 139 116 70 42 134 151 154 143 134 82 36 87 68 259 173 152 45 87 147 219 225 213 204 197 178 146 123 100 83 127 195 267 212 254 262 257 310 319 180 265 268 260 259 254 261 270 256 198 234 240 239 248 244 234 231 229 232 228 219
235 235 233 223 212 195 169 44 160 156 153 171 151 110 155 142 110 144 143 286 275 252 233 249 343 278 253 192 184 162 72 77 59 192 166 149 143 166 180 82 137 187 241 132 117 55 74 217 236 228 171 118 121 148 146 135 104 81 111 180 269 247 275 283 298 340 3 182 270 298 283 264 254 256 262 250 232 239 238 233 242 244 239 234 229 231 223 204
234 233 228 222 211 195 165 120 166 161 167 186 174 140 135 103 85 85 124 98 296 263 216 213 229 241 232 238 199 175 126 159 169 224 184 151 138 183 141 123 156 141 140 176 163 161 186 248 246 203 139 129 101 107 122 109 98 165 160 188 247 245 270 281 302 339 346 196 280 301 287 271 257 252 254 249 241 249 256 247 247 246 241 240 235 224 212 209
233 230 226 219 204 192 166 154 174 183 194 198 210 187 130 103 89 76 114 70 300 277 230 209 209 202 198 211 185 173 185 190 168 198 184 158 129 153 155 152 137 121 189 201 184 191 218 246 239 131 151 163 129 102 130 148 247 236 204 203 225 229 218 234 292 326 330 352 8 334 297 274 243 240 250 261 274 265 258 255 257 252 242 243 248 227 211 212
231 228 223 212 202 190 166 164 188 203 196 200 221 204 158 122 88 73 81 20 290 288 296 214 204 207 200 179 166 167 149 229 216 189 178 166 145 141 172 147 124 178 208 198 193 239 249 236 123 110 139 152 140 154 172 172 216 267 229 206 216 224 227 249 335 0 351 329 349 15 317 281 252 241 255 285 319 268 256 255 255 257 252 234 236 235 217 213
229 226 219 208 198 181 164 179 206 200 191 215 225 196 177 168 92 75 88 42 281 270 269 184 179 193 191 163 152 139 83 254 242 160 166 172 162 123 143 149 82 199 193 160 193 248 241 227 110 123 137 150 163 206 216 180 174 265 248 206 212 208 214 251 285 25 296 266 300 49 27 282 278 230 240 250 255 261 268 266 257 258 262 237 230 235 217 209
229 225 216 206 193 177 169 183 193 183 185 230 217 183 183 183 152 99 85 32 284 207 141 203 198 167 175 165 154 134 184 236 119 135 163 173 180 80 124 177 119 198 177 124 239 253 178 148 84 118 122 140 173 219 217 171 152 240 247 168 176 180 200 216 185 193 236 266 316 36 106 278 282 247 236 226 229 268 277 268 264 258 255 247 238 233 216 209
229 224 214 206 194 185 187 172 169 181 194 204 183 182 184 179 170 112 93 88 278 146 127 243 166 132 134 159 155 132 222 205 118 184 180 151 181 55 144 199 173 186 179 145 218 272 153 166 174 157 134 161 194 218 186 155 159 245 202 129 140 158 172 147 135 179 298 359 307 292 134 258 277 263 326 25 209 256 261 258 264 264 257 251 241 234 220 211
226 223 215 207 195 193 199 185 175 196 203 177 161 180 173 164 165 78 80 199 265 93 116 114 126 87 78 140 164 95 34 37 127 220 42 126 172 60 168 201 149 164 200 188 213 266 125 194 191 160 156 195 202 249 177 161 182 209 132 100 80 81 82 86 113 124 53 328 247 216 168 233 275 237 109 55 200 234 246 253 263 267 267 258 243 240 225 210
225 223 217 205 191 190 191 195 203 204 203 205 179 168 158 143 136 91 144 218 238 106 93 111 166 176 139 148 184 355 80 31 1 104 55 117 74 40 137 157 93 125 230 296 248 255 297 265 204 162 170 183 136 66 159 156 152 140 110 72 54 40 40 52 51 83 57 283 244 202 185 190 274 268 158 189 217 219 233 256 273 278 281 266 252 247 223 205
225 222 216 202 192 188 180 192 205 196 199 198 163 153 148 102 85 148 198 229 5 169 125 140 206 136 153 158 171 189 119 44 148 143 133 146 85 52 99 124 80 84 337 287 279 308 317 293 246 229 163 123 98 68 28 63 106 111 91 82 77 357 8 24 356 47 175 262 274 232 197 183 240 259 225 249 263 237 220 241 262 270 276 266 260 259 225 200
226 220 212 203 196 190 187 198 195 186 181 167 152 145 139 109 159 210 215 65 308 205 157 171 195 160 164 163 168 172 141 100 178 164 152 149 163 181 191 186 162 119 264 240 247 332 276 222 235 304 197 134 112 88 37 21 35 96 102 113 111 332 345 340 312 42 226 254 282 328 176 209 245 250 251 266 267 246 219 227 242 250 262 262 255 250 229 197
233 222 210 204 199 194 196 200 188 180 169 158 153 121 94 157 197 212 209 193 206 219 128 123 135 154 157 155 181 169 126 161 179 169 156 144 175 208 224 222 182 149 201 195 181 229 273 288 236 146 263 186 157 160 158 179 193 167 148 145 147 146 190 261 273 270 267 269 288 353 151 247 275 266 237 243 253 249 223 229 237 241 255 264 258 233 222 208
239 224 209 204 203 202 200 197 187 176 161 154 154 108 143 188 203 201 210 217 207 20 42 101 102 129 157 167 202 167 147 215 177 152 156 146 171 215 228 237 220 153 99 142 173 183 218 282 205 175 211 186 182 190 162 136 164 186 156 141 160 162 171 215 219 225 262 286 299 312 205 205 225 266 241 238 263 274 244 240 253 259 259 267 277 249 225 219
238 226 212 203 204 204 199 195 188 172 156 150 162 165 178 197 198 206 216 210 173 51 27 74 99 125 190 284 288 185 161 218 176 146 166 172 189 205 196 210 205 173 136 178 215 162 197 266 241 221 231 170 181 197 114 108 144 216 122 116 193 189 162 186 205 182 187 304 294 240 224 220 214 268 267 257 273 270 254 255 260 264 263 255 263 251 226 220
235 231 216 204 203 202 197 192 183 169 158 153 171 184 195 201 196 205 207 181 168 131 105 81 83 128 201 238 268 221 173 100 153 151 201 208 226 211 201 213 197 185 183 183 188 146 167 276 286 344 351 170 179 180 121 135 183 164 138 180 213 175 136 127 259 91 86 272 272 198 242 288 314 279 266 248 260 266 269 264 249 254 256 239 248 242 223 221
223 230 220 210 208 204 197 190 179 170 165 168 183 193 202 210 208 199 185 156 146 134 132 173 174 156 188 198 209 210 194 90 154 177 198 199 252 214 203 237 196 193 200 180 182 204 167 257 304 64 186 260 260 128 74 28 130 127 179 205 168 89 92 105 235 343 46 253 269 215 246 283 292 277 299 251 256 268 266 257 258 266 249 231 248 239 224 223
214 221 234 223 214 205 196 187 176 170 174 187 198 207 201 211 218 201 168 119 126 146 169 204 197 168 176 192 202 187 180 179 175 190 189 181 244 209 183 208 207 198 203 178 202 246 154 226 304 40 191 295 13 117 85 357 81 132 183 184 126 147 217 119 172 227 193 247 279 286 278 265 216 229 268 194 229 246 253 257 273 269 237 226 251 244 230 226
209 232 258 226 214 206 193 181 173 171 186 187 205 217 205 218 223 203 153 119 142 164 193 211 199 178 178 181 176 169 186 191 171 180 189 184 234 211 178 193 209 198 196 179 191 233 134 203 264 348 273 323 26 164 185 207 34 57 104 144 114 152 181 162 160 170 177 233 282 314 314 266 219 197 189 210 221 222 236 266 273 257 231 220 245 239 226 218
198 243 256 203 203 200 188 178 175 189 192 190 206 207 204 229 231 212 200 216 205 169 201 216 194 184 196 188 177 173 195 199 176 184 204 191 218 239 189 183 171 168 180 182 196 185 109 209 236 327 331 188 190 215 193 180 168 156 167 173 181 144 114 163 174 125 134 161 219 287 291 267 235 177 188 208 219 219 222 235 247 249 227 221 240 235 219 211
172 249 231 176 186 185 177 174 191 202 191 200 213 209 212 226 226 206 210 222 236 203 175 205 199 194 188 188 206 191 181 195 186 191 221 205 211 238 200 173 154 137 139 171 207 202 171 196 184 178 243 210 223 252 214 195 182 178 190 192 189 171 135 158 238 213 135 171 192 176 270 270 245 171 197 203 208 219 218 218 241 253 225 219 241 235 215 204
172 236 197 172 177 172 165 185 205 188 198 202 204 205 209 225 211 185 197 212 227 235 179 197 210 207 188 183 200 179 160 186 193 195 226 219 214 225 209 177 159 151 150 170 203 198 146 114 149 195 217 221 236 266 215 203 149 135 207 202 173 154 153 171 206 217 166 211 192 109 268 274 253 163 201 213 217 239 220 207 240 262 239 223 245 245 224 209
201 226 158 171 176 166 158 226 196 190 219 209 212 211 199 217 207 185 188 201 211 217 220 231 214 212 217 188 173 171 177 192 195 200 222 229 225 224 183 170 158 154 159 168 190 180 106 127 189 241 297 307 309 336 34 73 99 121 245 183 168 189 194 180 187 186 159 196 187 116 251 266 277 134 202 217 279 283 265 225 239 262 266 244 241 247 229 206
224 223 89 179 179 168 161 217 199 206 217 210 224 219 217 233 200 187 191 195 200 199 207 229 226 211 219 172 149 179 188 198 208 210 216 226 238 234 155 169 168 165 178 185 173 170 169 185 187 185 290 317 322 297 285 2 146 192 218 201 196 197 185 146 101 141 191 213 187 167 246 253 282 353 305 353 310 279 262 241 236 247 263 258 241 244 227 194
271 215 84 193 187 178 184 208 204 214 208 209 219 213 218 233 196 196 203 198 200 192 199 225 211 189 199 162 165 187 191 205 217 210 213 225 257 323 175 182 182 189 208 204 176 171 169 182 179 182 214 228 232 232 219 183 150 190 220 207 203 194 182 186 198 186 228 222 175 185 243 251 309 333 287 289 300 275 260 245 240 241 248 255 247 239 221 187
280 229 175 183 201 211 226 211 210 220 209 208 217 208 213 222 210 202 205 204 208 199 208 231 192 169 189 181 193 209 205 217 223 199 202 217 225 311 211 189 194 204 212 74 164 165 142 184 189 194 209 220 234 240 164 131 150 204 216 203 199 201 194 193 205 211 217 204 176 217 234 248 259 244 244 253 241 247 261 257 252 249 245 243 238 231 216 192
257 247 200 168 199 225 238 240 222 225 213 199 198 197 209 218 221 206 191 197 210 203 215 231 190 185 201 197 210 221 208 216 228 220 214 210 210 316 310 194 210 214 149 73 180 145 111 208 202 205 214 221 236 239 167 147 179 203 208 202 200 201 193 192 211 218 204 165 231 235 227 241 253 235 209 232 230 228 249 245 238 244 244 233 217 208 205 196
235 264 252 207 228 212 220 228 221 228 231 207 193 201 209 211 213 208 189 191 208 200 205 220 212 212 212 206 214 224 209 205 218 223 224 210 173 160 321 231 225 202 140 157 219 144 160 220 206 212 223 226 237 237 189 178 199 204 205 204 199 195 192 198 215 221 208 189 235 242 216 220 247 242 211 212 211 216 233 231 216 211 213 205 188 185 198 201
221 270 282 301 261 225 239 235 215 216 228 220 203 213 213 209 210 208 188 181 208 205 198 211 217 217 219 215 213 219 216 211 215 219 219 209 182 163 187 215 221 173 149 173 215 169 183 221 211 213 225 229 236 235 207 203 218 215 211 208 199 194 196 204 215 221 216 214 234 244 230 229 245 240 206 199 203 216 221 182 180 200 199 191 184 196 212 213
212 263 260 265 240 242 290 287 206 201 217 216 214 221 217 215 215 209 193 189 201 202 201 214 222 218 219 220 218 223 222 218 223 223 210 205 203 185 193 197 157 149 175 187 212 197 195 219 214 210 226 235 238 237 219 210 222 224 222 216 207 202 204 210 216 218 217 225 235 242 250 255 252 192 168 192 202 218 230 215 221 229 222 205 201 217 225 222
231 275 271 317 290 221 244 260 198 191 210 205 204 210 215 223 219 213 212 208 207 205 201 215 227 228 225 223 222 229 231 225 230 232 212 204 213 206 205 199 166 165 185 190 194 184 194 219 201 181 225 235 236 236 224 208 226 242 237 222 214 212 212 212 215 216 211 218 231 239 250 255 243 129 154 193 192 213 233 231 228 233 225 213 211 222 227 227
225 264 243 259 269 215 210 233 211 206 213 198 195 200 209 221 215 208 224 228 219 222 214 213 225 231 231 229 225 229 236 238 243 249 223 210 226 218 198 197 181 174 177 187 197 185 186 205 207 198 222 238 239 235 213 161 204 245 232 223 218 215 212 211 220 225 217 210 216 222 233 242 231 133 160 196 190 212 227 224 218 219 215 211 213 219 223 227